Regional Weather Roundup
Issued by NWS

Home | Current Version | Previous Version | Text Only | Print | Product List | Glossary Off
Versions: 1 2 3 4 5 6 7 8 9 10 11 12 13 14 15 16 17 18 19 20 21 22 23 24 25 26 27 28 29 30 31 32 33 34 35 36 37 38 39 40 41 42 43 44 45 46 47 48 49 50

000
ASUS45 KPSR 282300
RWRAZ

PRELIMINARY ARIZONA REGIONAL HOURLY WEATHER ROUNDUP
NATIONAL WEATHER SERVICE PHOENIX AZ
400 PM MST FRI NOV 28 2014

NOTE: FAIR INDICATES FEW OR NO CLOUDS BELOW 12,000 FEET WITH NO
SIGNIFICANT WEATHER AND/OR OBSTRUCTIONS TO VISIBILITY.

AZZ001>003-036-290000-
NORTHWEST ARIZONA

CITY           SKY/WX    TMP DP  RH WIND       PRES   REMARKS
KINGMAN        SUNNY     73  14  10 SW15      30.00F
$$

AZZ004>008-015-016-018-290000-
NORTH CENTRAL ARIZONA

CITY           SKY/WX    TMP DP  RH WIND       PRES   REMARKS
GRAND CANYON   SUNNY     64   5   9 SW16G25   30.13F
PRESCOTT       SUNNY     71  13  10 SW9       30.08F
FLAGSTAFF      NOT AVBL
PAYSON         SUNNY     66  14  13 S7        30.13F
PAGE           SUNNY     56  19  23 NE3       30.03F
$$

AZZ009>014-017-290000-
NORTHEAST ARIZONA

CITY           SKY/WX    TMP DP  RH WIND       PRES   REMARKS
WINSLOW        NOT AVBL
SAINT JOHNS    SUNNY     71  11  10 N5        30.08F
SHOW LOW       SUNNY     63   9  12 SW13      30.17S
$$

AZZ023-290000-
GREATER PHOENIX AREA

CITY           SKY/WX    TMP DP  RH WIND       PRES   REMARKS
PHOENIX        SUNNY     83  22  10 SE3       29.90F
BUCKEYE          N/A     77  32  19 SE9       29.91
GLENDALE       SUNNY     81  25  12 CALM      29.93F
DEER VALLEY    SUNNY     80  20  10 S7        29.92F
SCOTTSDALE     SUNNY     81  24  12 CALM      29.94F
MESA-FALCON    SUNNY     81  23  12 S7        29.92F
MESA-GATEWAY   SUNNY     81  25  12 CALM      29.94F
CHANDLER       SUNNY     81  27  13 VRB5      29.92F
$$

AZZ027-028-290000-
SOUTHWEST MARICOPA COUNTY AND PINAL COUNTY

CITY           SKY/WX    TMP DP  RH WIND       PRES   REMARKS
CASA GRANDE    SUNNY     81  25  12 CALM      29.93F
$$

AZZ503-504-507>509-290000-
SOUTHEAST ARIZONA

CITY           SKY/WX    TMP DP  RH WIND       PRES   REMARKS
TUCSON         SUNNY     84  19   9 CALM      29.98F
DAVIS-MONTHAN  SUNNY     80  20  10 NW2       29.97F
RYAN FIELD       N/A    N/A N/A N/A NW6       29.97F
NOGALES        SUNNY     80  17   9 VRB5      30.03F
SIERRA VISTA   SUNNY     74  14  10 VRB3      30.08F
SAFFORD        SUNNY     72  20  14 S5        30.02F
$$

AZZ020-021-025-026-031-290000-
SOUTHWEST ARIZONA

CITY           SKY/WX    TMP DP  RH WIND       PRES   REMARKS
YUMA           MOSUNNY   83  23  11 CALM      29.87F
$$

CAZ031-033-041-043-047-048-061-290000-
SOUTHERN CALIFORNIA

CITY           SKY/WX    TMP DP  RH WIND       PRES   REMARKS
DOWNTOWN L.A.  SUNNY     80  43  26 CALM      29.88F
L.A. AIRPORT   MOSUNNY   72  50  45 W9        29.89F
SAN DIEGO      MOSUNNY   72  54  53 S6        29.91F
BURBANK        SUNNY     80  33  18 S8        29.89F
ONTARIO        SUNNY     83  23  11 SW8       29.90F
RIVERSIDE      SUNNY     83  23  11 W6        29.90F
PALM SPRINGS   SUNNY     82  25  12 E6        29.89F
EL CENTRO NAS  SUNNY     83  28  13 N3        29.86F
IMPERIAL       SUNNY     81  25  12 E6        29.86F
BLYTHE         SUNNY     77  31  18 SE5       29.89F
$$

NVZ020-UTZ003-290000-
SOUTHERN NEVADA-UTAH

CITY           SKY/WX    TMP DP  RH WIND       PRES   REMARKS
LAS VEGAS      NOT AVBL
SALT LAKE CITY MOCLDY    64  14  14 S17G28    29.83F
$$

NMZ009-TXZ055-290000-
NEW MEXICO-WEST TEXAS

CITY           SKY/WX    TMP DP  RH WIND       PRES   REMARKS
ALBUQUERQUE    PTCLDY    60  20  21 S7        30.10F
EL PASO        MOSUNNY   68  19  15 S5        30.09F
$$


........................KEY........................
SKY/WX - SKY CONDITION/WEATHER
TMP    - TEMPERATURE IN FAHRENHEIT
DP     - DEW POINT IN FAHRENHEIT
RH     - RELATIVE HUMIDITY IN PERCENT
WIND   - DIRECTION AND SPEED IN MILES PER HOUR (MPH)
VRB    - VARIABLE WIND DIRECTION
PRES   - MEAN SEA LEVEL PRESSURE IN INCHES OF MERCURY
         F - FALLING PRESSURE   R - RISING PRESSURE
         S - STEADY PRESSURE
VSB    - VISIBILITY IN MILES
HX     - HEAT INDEX IN FAHRENHEIT
WCI    - WIND CHILL INDEX IN FAHRENHEIT
TC     - TEMPERATURE IN CELSIUS WHICH IS ALSO KNOWN AS
         TEMPERATURE IN CENTIGRADE
AFB    - AIR FORCE BASE
         LUKE AFB IS LUKE AIR FORCE BASE
         DAVIS-MONTHAN IS DAVIS-MONTHAN AIR FORCE BASE
NAS    - NAVAL AIR STATION
         EL CENTRO NAS IS EL CENTRO NAVAL AIR STATION
N/A    - NOT AVAILABLE


USA.gov is the U.S. government's official web portal to all federal, state and local government web resources and services.